Theta_e
314 314 313 311 310 309 312 318 308 323 324 309 310 307 310 303 311 313 310 312 311 309 312 311 314 316 320 322 322 317 322 319 315 317 321 321 319 317 316 310 310 312 311 311
315 314 313 312 310 309 313 316 315 323 319 304 307 311 311 311 309 309 309 308 312 313 310 309 313 314 322 321 319 316 320 316 312 313 317 319 314 316 317 316 316 311 307 312
315 315 314 313 311 310 312 317 309 316 315 314 310 310 309 308 311 309 311 311 312 310 310 314 313 313 315 317 318 326 320 316 313 309 312 316 313 314 315 313 309 309 310 313
314 315 314 313 312 310 312 318 313 318 309 309 311 311 310 308 307 313 313 311 311 310 308 310 311 315 315 316 317 317 316 310 313 313 314 314 314 313 314 312 313 310 312 313
314 314 314 314 311 308 315 311 312 317 314 316 312 307 310 310 311 312 312 310 311 312 309 311 311 314 315 315 317 315 317 310 313 311 314 314 311 313 313 313 313 314 314 314
313 313 313 313 310 309 313 315 316 313 309 312 310 310 310 311 313 314 315 314 312 311 312 315 316 318 318 319 317 315 315 312 311 307 312 312 308 312 313 314 315 315 311 316
313 314 313 313 312 309 314 314 314 310 306 310 310 311 313 312 313 312 314 315 314 317 322 320 318 317 317 318 318 320 316 315 313 309 311 302 313 318 317 315 315 317 317 318
312 313 313 313 312 311 314 316 313 311 306 308 307 310 312 313 315 314 314 316 319 321 318 312 310 309 310 312 315 316 318 315 311 307 306 310 312 315 315 313 313 318 317 319
312 312 313 313 313 311 314 316 317 313 307 307 309 306 309 309 311 313 315 320 321 319 315 310 306 304 307 307 309 316 317 317 311 310 305 302 313 317 320 320 309 320 319 318
311 312 312 313 313 311 312 316 319 312 307 312 311 306 306 312 312 311 316 316 316 319 313 308 306 306 312 306 307 309 311 311 307 307 305 308 315 319 321 306 311 325 323 324
311 311 312 312 313 313 312 315 319 312 308 311 313 312 309 309 311 310 315 313 314 314 311 310 310 309 313 310 313 311 310 308 307 308 305 302 321 317 312 323 328 328 328 330
311 312 312 312 312 312 312 313 319 318 309 311 315 315 315 315 314 312 314 314 315 317 314 314 314 310 313 311 306 316 309 313 310 311 311 325 324 322 325 328 327 328 330 329
311 311 312 312 312 312 311 311 315 313 309 311 315 314 319 319 316 316 308 315 316 319 319 317 316 312 314 308 309 312 315 318 312 313 315 318 322 324 326 328 329 330 329 326
311 312 312 312 312 311 310 309 315 314 310 307 313 321 320 324 321 316 314 314 316 316 317 314 313 311 316 311 313 312 315 319 313 315 317 320 321 323 326 328 329 327 327 325
311 312 312 312 312 311 310 311 313 314 310 309 312 317 319 321 321 319 316 312 311 310 311 311 310 314 314 315 314 311 315 313 310 309 318 319 320 326 328 327 326 326 326 326
311 311 311 311 311 310 310 312 317 316 314 309 309 317 315 321 321 320 317 314 312 311 311 311 313 316 314 309 307 313 315 317 317 315 320 321 323 327 328 326 325 326 326 328
310 310 310 310 310 310 311 310 314 313 317 310 310 311 315 321 321 321 320 319 315 314 312 311 312 313 313 309 303 311 314 316 318 319 320 319 321 321 326 326 327 325 328 327
310 310 309 310 309 310 312 316 310 314 314 314 308 310 312 320 315 315 321 316 317 316 315 317 314 315 315 308 314 315 316 317 317 317 318 321 322 323 325 327 328 325 325 325
310 310 310 312 312 314 314 313 311 316 314 307 311 307 308 319 316 318 317 318 311 317 313 313 314 312 309 314 316 317 318 317 316 318 319 321 320 322 324 325 326 324 324 325
309 312 313 310 314 311 312 313 309 309 312 312 309 314 310 316 315 313 314 315 311 308 313 316 312 311 316 316 318 320 321 320 321 317 318 320 320 322 324 324 325 324 324 326
310 308 307 314 312 314 312 308 306 307 304 311 311 312 310 316 310 312 316 313 312 304 310 309 309 308 314 320 321 322 322 322 321 322 322 323 324 325 323 322 324 324 325 326
305 304 308 310 310 309 304 303 307 306 305 311 311 312 314 317 321 314 316 309 313 303 318 309 305 319 322 321 320 322 322 322 322 323 324 325 326 325 325 325 325 324 325 326
309 303 301 305 307 297 298 297 303 305 311 316 317 313 318 321 317 313 311 306 305 314 307 304 313 322 322 323 322 322 324 324 324 324 324 323 323 323 322 321 323 323 323 326
303 302 293 301 300 302 303 305 308 312 317 317 319 318 316 319 314 313 305 308 310 302 300 302 319 323 324 324 325 324 322 322 322 321 322 321 320 320 320 320 321 321 323 325
301 304 296 301 307 310 311 310 312 316 319 319 315 313 312 310 308 309 308 305 302 302 303 314 321 325 325 324 324 322 321 321 321 320 319 319 319 320 321 322 323 323 323 323
300 303 302 306 305 305 309 310 308 314 319 319 315 310 307 305 307 305 304 302 300 308 317 319 323 324 323 323 325 324 321 319 319 319 319 320 320 320 321 323 323 323 323 324
299 301 307 305 305 305 307 310 311 314 312 311 312 303 303 311 306 304 307 305 312 315 319 323 326 325 325 325 324 320 320 320 320 321 321 320 321 322 318 318 320 322 324 325
Wind_Speed
20 20 20 22 23 29 12 8 9 8 10 11 12 15 21 7 12 8 13 7 12 10 12 9 21 19 19 16 13 16 20 14 16 16 14 19 21 18 21 16 18 12 16 11
20 21 20 20 19 17 10 7 5 8 10 9 14 19 16 8 11 16 11 14 11 3 9 8 13 18 12 11 10 12 12 17 17 16 16 14 10 15 16 17 15 16 12 4
20 21 22 21 20 18 7 6 6 7 9 13 16 14 17 16 13 18 13 12 13 10 12 10 6 14 7 4 11 5 7 14 15 14 15 5 20 18 18 18 14 14 15 15
20 21 22 23 23 23 6 7 3 7 5 13 15 17 10 17 14 11 10 14 17 16 15 15 14 11 13 8 7 8 14 16 18 21 21 5 11 10 10 13 16 17 16 16
19 20 21 23 25 32 7 7 6 8 13 10 12 11 12 14 13 9 11 15 15 14 18 17 14 15 14 14 12 15 17 17 15 13 13 13 12 15 13 15 13 15 16 16
18 19 20 20 20 24 6 8 7 6 7 11 11 11 16 12 13 7 10 10 6 11 10 13 15 15 16 11 16 16 17 14 14 13 17 20 18 10 15 15 15 13 15 12
18 18 18 18 15 15 9 7 8 8 11 8 9 10 10 12 12 13 4 4 8 7 8 10 13 15 17 15 12 11 16 15 11 12 14 20 11 1 3 9 15 17 17 17
19 19 17 16 15 13 11 5 6 7 9 10 9 10 10 12 10 10 12 12 7 5 9 11 15 15 19 21 19 17 15 11 12 15 15 15 16 9 14 14 14 9 14 17
18 18 18 16 14 13 10 7 4 7 8 0 9 10 10 11 12 14 16 10 7 9 9 12 16 13 13 18 18 13 13 16 12 13 16 18 14 15 12 9 8 13 17 18
18 17 17 16 15 13 10 7 3 6 9 14 6 7 8 5 8 10 3 4 8 11 9 12 12 14 16 16 19 13 13 16 14 15 16 17 12 11 8 9 8 12 12 14
18 18 16 16 14 13 9 9 3 7 8 17 18 16 12 9 7 9 6 6 11 7 10 11 9 10 7 8 10 10 13 13 12 15 16 20 11 1 4 9 8 8 3 5
18 17 16 15 13 12 9 7 2 4 8 11 18 17 20 15 14 10 7 8 6 7 6 7 7 6 4 2 9 10 10 10 8 9 7 7 4 7 3 5 7 3 6 8
18 18 17 15 13 11 6 8 8 8 8 14 14 10 11 14 18 14 7 6 7 1 4 7 6 5 7 7 10 14 5 6 6 11 12 10 9 5 4 5 6 7 10 8
19 18 18 17 13 11 9 6 5 6 6 7 5 7 7 7 7 14 17 12 7 7 6 7 6 7 3 9 14 10 5 4 3 8 13 8 7 7 5 5 10 9 7 6
20 20 19 18 15 12 10 8 8 8 7 8 10 15 3 8 8 10 12 14 11 7 6 6 7 7 7 6 11 11 10 12 10 10 11 6 6 9 9 10 9 11 9 7
20 20 20 19 15 8 6 5 7 8 6 6 6 6 4 4 6 8 8 9 8 8 5 5 6 5 2 7 11 15 13 15 11 8 8 6 10 8 12 11 10 8 6 9
22 21 21 19 12 7 5 7 5 7 6 5 6 4 7 4 7 6 6 8 6 6 8 8 8 5 5 9 12 13 13 11 7 4 9 10 14 7 11 11 9 6 9 6
22 21 20 11 2 8 6 4 5 6 5 6 6 4 5 8 7 6 5 6 5 6 6 4 6 4 5 6 9 7 9 10 11 11 8 13 16 14 12 9 10 10 10 9
23 19 4 5 6 1 4 6 5 6 5 6 5 8 4 8 7 4 5 6 7 5 6 9 7 8 7 6 8 8 6 5 7 8 13 11 12 12 12 12 12 11 10 6
22 8 7 4 5 8 5 6 4 5 5 6 7 7 5 3 6 8 6 7 8 7 9 9 7 8 13 12 14 3 4 2 7 8 8 6 8 8 11 12 11 9 7 9
6 5 5 5 7 5 5 4 6 5 5 6 7 10 7 5 6 1 3 2 5 4 6 6 6 7 2 3 6 5 5 8 8 8 7 10 7 2 3 3 2 3 3 6
6 6 6 5 5 5 5 4 4 6 4 4 7 6 8 3 2 5 4 5 2 4 2 4 8 7 5 5 4 3 6 5 4 2 5 9 9 7 5 3 2 4 4 4
2 2 3 4 4 2 7 6 5 4 2 3 3 5 3 2 5 5 2 5 6 5 5 7 4 7 5 5 5 6 6 9 9 9 7 4 5 3 4 4 5 5 7 5
4 4 3 6 6 6 4 5 4 3 3 1 3 2 1 3 4 3 4 3 2 4 6 3 7 6 6 5 6 6 7 7 6 5 4 2 1 1 2 4 4 6 6 7
5 4 5 7 6 1 5 4 3 5 5 4 3 4 4 6 4 4 3 4 6 4 0 5 6 6 7 6 5 4 4 4 4 5 5 4 5 5 6 6 6 6 7 8
4 6 7 6 6 4 3 2 2 4 2 3 4 3 3 5 3 4 7 4 2 4 3 7 7 7 6 5 6 5 5 4 4 4 4 4 5 6 7 7 8 8 8 6
5 4 4 6 7 7 3 4 3 3 6 2 2 4 4 2 3 4 4 3 4 4 5 4 5 6 5 6 5 5 5 4 3 2 2 4 5 5 6 7 4 7 6 7
Wind_Direction
338 336 340 344 341 336 305 283 236 133 175 201 219 225 237 279 241 201 252 251 281 294 288 251 219 221 228 182 234 231 223 242 233 241 209 227 245 241 218 239 234 256 278 286
342 339 337 340 344 356 310 272 285 148 214 227 227 221 247 253 235 241 229 232 245 278 260 243 256 248 230 151 192 243 230 224 248 234 237 206 234 250 266 274 263 254 278 260
343 342 339 336 340 346 289 271 233 159 206 259 287 246 214 233 222 261 257 259 266 257 252 243 259 244 120 194 218 44 286 242 228 245 242 278 212 214 241 247 253 253 246 258
344 343 343 342 337 337 279 237 291 24 193 220 235 260 256 226 217 205 234 237 243 247 244 249 212 241 199 207 176 218 234 245 255 259 270 169 278 238 231 246 271 273 279 273
345 345 345 347 341 333 250 316 342 353 285 298 282 231 242 251 236 217 218 225 267 221 238 256 250 225 238 194 179 227 213 231 252 265 262 264 253 262 251 267 273 259 278 289
348 349 346 349 353 338 325 6 294 269 284 252 240 243 235 242 255 240 245 294 269 263 253 291 279 307 299 244 201 203 231 233 239 239 246 248 236 251 266 264 256 262 264 278
345 346 349 348 354 354 316 349 303 270 266 252 264 256 299 267 244 250 174 228 251 272 320 290 270 269 265 272 275 245 216 247 265 261 250 249 256 204 334 303 298 297 301 297
343 344 346 345 343 342 316 313 314 310 285 287 288 279 251 264 263 247 259 260 277 317 262 247 239 230 231 234 233 244 257 247 230 254 254 258 261 229 227 254 265 285 312 301
340 341 341 341 338 342 313 310 321 285 297 274 355 300 285 271 246 224 223 235 266 274 250 219 235 225 225 214 222 225 244 259 257 257 255 256 280 304 40 9 277 261 275 270
334 336 339 338 340 340 317 290 326 277 285 269 318 274 311 273 279 286 271 179 246 228 249 242 225 229 241 220 215 185 215 245 234 240 254 265 288 41 25 279 331 332 314 320
330 331 333 331 335 340 323 311 6 301 294 295 288 282 271 272 246 269 47 257 215 257 234 240 242 252 222 229 260 217 207 220 226 251 265 261 42 141 277 26 336 343 326 43
328 327 325 324 326 327 329 282 58 306 265 289 318 289 278 270 276 297 291 327 310 4 282 243 259 267 234 245 252 196 243 287 328 323 0 124 2 354 16 310 285 267 120 103
324 323 320 317 315 312 297 299 320 281 256 267 233 234 207 225 236 250 268 247 2 245 332 322 320 323 309 268 224 271 227 245 259 285 288 325 10 355 296 241 200 133 107 114
320 319 316 312 307 298 284 270 283 280 274 275 123 137 189 181 196 218 233 272 301 289 284 282 274 264 254 276 288 314 334 70 251 272 262 278 258 255 206 148 132 155 171 159
316 314 313 308 301 289 275 258 245 260 289 327 318 306 273 193 183 203 217 231 246 268 257 237 250 269 275 268 284 283 281 274 255 269 278 316 285 166 174 177 185 167 153 126
312 310 309 302 298 284 263 230 168 202 225 278 281 25 181 150 167 184 187 208 225 250 267 260 264 287 332 265 258 257 259 267 279 263 317 336 308 190 179 191 192 154 164 134
312 308 309 305 281 221 260 9 21 150 221 254 271 216 140 175 170 181 177 191 206 228 223 240 264 226 185 256 261 280 291 299 293 317 311 284 262 248 188 204 161 122 117 130
307 309 315 314 211 237 243 159 210 234 252 262 272 261 166 185 194 180 178 180 211 195 260 227 245 192 214 264 270 286 299 302 294 276 243 258 265 223 182 184 143 171 162 155
301 307 287 227 232 312 57 126 156 231 289 296 251 276 54 168 228 174 172 208 207 213 220 241 242 238 225 207 235 254 262 270 279 265 246 253 245 195 181 186 168 204 168 161
293 263 205 194 54 118 159 183 196 201 200 229 260 287 256 239 168 186 205 184 243 205 210 222 238 250 263 249 234 322 343 260 283 263 256 235 240 193 183 193 204 199 193 165
348 314 16 348 139 232 214 212 220 177 214 226 234 252 261 160 263 340 241 21 247 259 226 217 239 231 4 55 49 20 333 281 256 255 255 238 213 180 215 172 227 156 214 180
309 302 295 296 246 227 238 231 211 213 240 212 215 182 225 133 263 257 173 235 237 228 209 261 249 81 53 72 63 35 332 313 237 136 82 46 62 54 37 18 254 260 222 227
194 207 248 247 216 251 221 206 214 206 227 173 197 185 201 8 244 232 189 231 235 162 223 232 77 99 90 78 77 67 65 72 71 75 83 93 115 142 209 226 235 250 252 217
260 224 238 242 197 236 232 285 38 333 24 281 168 229 168 199 251 234 224 293 292 228 232 201 128 111 101 99 102 120 119 120 125 133 121 98 159 335 290 270 281 286 263 249
271 231 242 222 252 246 290 307 294 7 328 299 231 205 225 196 207 227 210 218 230 233 202 94 98 114 121 114 108 106 101 75 62 23 21 8 344 317 304 298 281 264 254 262
250 254 263 306 269 274 228 253 104 10 339 295 251 225 253 234 216 233 224 231 197 59 69 106 137 131 132 121 101 109 75 72 60 42 32 7 354 332 323 308 294 286 286 287
249 250 278 287 275 281 277 276 261 320 290 287 286 244 221 227 238 227 224 5 74 57 51 60 128 139 124 115 120 92 98 92 70 44 3 333 302 317 317 299 312 290 263 253